Vorticity
nan nan nan nan nan nan nan nan nan nan nan nan nan nan nan nan nan nan nan nan nan nan nan nan nan nan nan nan nan nan nan nan nan nan nan nan nan nan nan nan nan nan nan nan
nan 12 8 7 6 4 6 6 7 7 2 3 4 8 18 15 11 8 8 8 8 8 8 8 7 6 7 6 6 7 7 6 5 4 7 8 8 7 9 10 9 7 8 nan
nan 13 8 8 5 8 3 9 6 4 7 9 12 13 12 11 13 10 9 9 8 9 8 8 6 6 6 6 7 6 7 6 6 5 7 7 6 9 10 9 9 10 8 nan
nan 6 9 8 8 9 10 10 8 8 7 8 7 15 10 9 10 10 10 9 9 9 7 8 8 7 6 7 7 8 8 6 7 7 4 7 5 8 8 8 10 9 10 nan
nan 10 11 7 9 11 9 3 10 10 9 10 5 3 3 7 12 17 17 14 11 10 9 9 8 7 7 7 7 8 9 7 7 6 5 6 7 6 7 9 9 9 10 nan
nan 5 7 14 7 6 7 10 12 11 12 12 10 7 10 10 13 9 17 23 18 15 12 9 9 9 9 7 7 8 8 8 8 8 8 5 5 5 8 9 6 9 8 nan
nan 6 3 10 16 6 6 11 12 13 9 10 20 15 7 11 13 8 8 9 12 24 24 16 12 8 9 9 7 7 9 8 8 7 7 8 6 8 5 7 7 8 8 nan
nan 7 1 6 9 8 16 11 16 9 8 11 9 14 11 7 3 3 5 5 6 8 14 26 24 13 10 10 8 8 7 8 9 8 7 8 7 5 9 5 7 8 8 nan
nan 6 8 6 7 14 10 7 6 19 13 6 8 11 8 7 -4 0 4 4 5 6 9 13 16 24 20 12 11 8 6 9 8 7 7 8 8 7 6 9 7 5 8 nan
nan 9 12 6 13 8 -1 14 13 8 8 11 10 7 17 7 -4 3 3 5 5 6 7 9 12 19 24 19 13 11 9 7 8 7 6 8 9 8 7 8 7 7 7 nan
nan 14 7 6 9 7 15 5 -0 2 12 10 10 5 14 6 1 4 3 3 6 7 7 9 10 14 28 27 14 11 10 8 8 9 9 8 9 8 8 7 8 7 7 nan
nan 11 3 9 12 13 6 10 12 13 9 1 4 13 7 -0 -3 2 6 6 7 8 8 9 10 12 27 26 16 13 11 8 8 9 10 9 7 8 7 8 8 7 8 nan
nan 8 12 11 5 9 12 6 5 6 9 9 5 9 -3 -9 -2 4 6 8 7 7 10 11 9 13 20 22 18 13 12 11 8 10 9 8 8 7 8 8 9 9 9 nan
nan 7 5 -3 2 15 14 2 2 2 5 9 7 -5 -6 -1 3 6 9 9 6 7 8 11 10 10 13 20 20 14 13 12 11 10 8 10 10 9 8 9 10 10 10 nan
nan 10 11 8 4 6 6 5 7 7 4 -0 0 3 7 7 9 11 12 7 7 6 7 8 10 9 12 18 20 18 13 12 12 10 10 9 10 10 11 10 10 11 9 nan
nan 8 12 12 18 12 11 11 12 9 7 7 7 10 10 8 11 10 6 6 6 7 9 8 9 10 12 14 18 19 15 14 11 11 11 9 11 10 10 10 10 10 10 nan
nan 11 10 9 12 12 24 20 14 13 12 12 7 9 15 14 8 8 11 6 10 10 8 10 11 13 12 12 12 17 14 13 17 11 11 11 11 11 10 11 9 10 9 nan
nan 8 7 11 7 9 3 17 16 16 11 11 13 9 10 14 12 12 15 15 11 9 8 9 11 11 11 11 14 14 18 17 7 9 18 14 9 11 10 12 13 10 11 nan
nan 8 9 10 2 9 10 12 11 10 6 17 16 8 7 9 16 20 10 7 3 7 10 8 6 11 15 10 13 14 16 13 14 15 8 9 14 13 9 9 11 10 10 nan
nan 8 5 6 10 9 16 12 8 12 17 7 4 5 4 9 14 3 1 6 8 10 9 10 8 10 14 15 10 13 15 14 16 17 14 12 10 6 7 12 12 10 12 nan
nan 9 7 10 13 7 7 7 10 6 2 -1 4 5 6 8 7 5 7 9 11 8 10 13 16 16 11 14 9 18 21 15 13 17 20 19 14 16 16 11 13 17 17 nan
nan 11 13 12 12 7 2 1 6 5 4 9 9 11 11 9 8 10 12 12 12 12 11 16 23 20 16 12 13 17 21 18 15 16 15 16 16 15 19 16 9 15 19 nan
nan 4 7 9 6 7 9 10 9 14 13 15 12 11 14 12 10 11 13 15 12 14 15 14 19 16 17 14 18 17 10 8 11 13 11 8 10 12 12 14 9 6 8 nan
nan 11 5 7 4 4 11 17 10 8 13 15 16 12 13 14 14 18 22 16 13 13 14 14 15 17 12 18 13 13 15 13 8 9 9 9 6 5 9 13 10 11 10 nan
nan 12 9 11 5 8 8 8 16 14 17 17 21 20 17 19 23 23 20 15 12 10 12 13 13 14 10 14 16 16 19 17 13 9 6 11 16 11 6 6 13 15 13 nan
nan nan nan nan nan nan nan nan nan nan nan nan nan nan nan nan nan nan nan nan nan nan nan nan nan nan nan nan nan nan nan nan nan nan nan nan nan nan nan nan nan nan nan nan
CAPE
0 0 0 0 0 0 0 0 0 0 0 0 0 0 0 151 163 243 190 41 13 8 1 8 22 0 63 17 18 194 572 762 732 665 724 816 980 1028 917 752 830 1306 1063 1071
0 0 0 0 0 0 0 0 0 0 0 0 0 0 2 84 249 276 248 146 96 13 0 4 65 57 52 215 247 286 600 1127 1239 884 961 848 915 908 987 933 1112 1380 1182 1102
0 0 0 0 0 0 0 0 0 0 0 0 0 0 70 447 457 357 306 291 259 146 0 0 65 137 83 149 429 475 880 1115 1375 907 925 1005 869 1098 1125 1120 1215 1347 1230 1147
0 0 0 0 0 0 0 0 0 0 0 0 0 1 0 188 567 560 495 377 332 316 154 0 52 150 169 165 237 576 812 1174 1393 1308 1150 1154 952 920 827 991 927 942 1182 1060
0 0 0 0 0 0 0 0 0 0 0 0 0 0 2 0 12 116 224 331 301 289 260 144 37 57 157 118 217 492 970 1179 1213 1477 1343 1263 1439 1010 825 809 1102 1524 1486 1243
0 0 0 0 0 0 0 0 0 0 0 0 0 0 2 17 0 20 7 75 169 209 245 237 159 80 111 148 169 345 1379 1832 1435 1397 1634 1548 1870 1679 1091 1310 991 1139 855 1073
0 0 0 0 0 0 0 0 0 0 0 0 0 0 0 4 0 0 0 0 0 5 68 116 276 206 181 225 202 297 1296 1599 1483 1337 1514 1552 1787 1915 1889 1620 1122 1509 560 533
0 0 0 0 0 0 0 0 0 0 0 0 0 0 0 0 0 0 0 0 0 0 18 89 55 246 251 276 363 367 674 1766 1523 1339 1705 2273 2493 1704 1699 2017 1116 806 576 534
0 0 0 0 0 0 0 0 0 0 0 0 0 0 0 0 0 0 0 0 0 0 0 48 354 260 214 314 483 495 758 1238 1615 1325 1734 2691 2774 2525 1692 2565 2372 1244 2010 553
0 0 0 0 0 0 0 0 0 0 0 0 0 0 0 0 0 0 0 0 0 0 0 0 99 972 802 205 410 565 656 1001 1378 1222 1599 1912 2049 2364 2444 2062 2329 2318 1759 2081
0 0 0 0 0 0 0 0 0 0 0 0 0 0 0 0 0 0 0 0 0 0 0 0 28 449 1321 319 289 599 726 864 1276 1945 1843 2295 1976 2097 1968 1565 2033 2280 2018 2474
0 0 0 0 0 0 0 0 0 0 0 0 0 0 0 0 0 0 0 0 0 0 0 0 24 353 1167 458 323 516 759 996 1724 2241 2659 2110 1681 1767 1540 1786 1806 1951 2207 2258
0 0 0 0 0 0 0 0 0 0 0 0 0 0 0 0 0 0 0 0 0 0 0 2 80 520 1494 666 477 532 750 906 1022 2065 1678 1520 1429 1377 1284 1273 1703 1984 2176 1998
0 0 0 0 0 0 0 0 0 0 0 0 0 0 0 0 0 0 0 0 0 0 0 13 245 392 1298 1273 656 699 764 918 1015 1317 1501 1839 1390 1362 1229 1855 2183 2235 2795 2358
0 0 0 0 0 0 0 0 0 0 0 0 0 0 0 0 0 0 0 0 0 0 0 22 226 468 630 1421 742 739 944 988 1066 1780 1462 2058 2078 2241 2146 2345 2525 2720 2924 2498
0 0 0 0 0 0 0 0 0 0 0 0 0 0 0 0 0 0 2 1 0 0 0 60 158 453 421 768 1321 729 990 1087 1300 1395 1555 2313 2528 2637 2913 3083 3225 3647 3435 3659
0 0 0 0 0 0 0 0 0 0 0 0 0 0 0 0 0 0 10 14 0 0 27 104 232 410 521 427 1033 1171 911 913 1122 1314 1715 1970 2508 1965 2155 2392 2616 3154 3525 3754
0 0 0 0 1 0 0 0 0 0 0 0 0 0 3 15 26 16 33 11 32 19 6 7 66 499 592 389 448 1441 1162 910 782 1098 1568 1675 1675 1817 1781 1606 2186 3043 2694 3155
0 0 0 0 1 0 0 0 0 9 0 0 1 0 2 10 3 0 8 111 28 0 0 2 1 252 565 368 400 873 1601 1322 1235 1641 1764 1498 1379 1822 1419 1342 1711 1871 2821 3151
0 0 0 0 0 0 3 0 0 1 0 46 1 1 6 9 1 4 45 39 38 5 0 0 0 0 20 489 198 546 1566 1733 1719 1903 1847 2056 2261 1577 1350 1432 2206 2558 2185 2881
0 2 3 9 16 22 35 1 0 45 88 51 15 5 3 4 12 4 3 44 121 40 9 7 3 0 0 276 357 589 1874 2294 1669 1847 2159 1967 1871 2067 2362 2201 1456 1571 2269 2401
0 3 17 23 61 105 46 46 92 132 88 55 25 19 21 43 7 21 63 162 202 94 20 20 84 2 4 55 175 37 765 562 768 1321 1454 581 822 548 718 653 630 474 310 885
1 2 51 74 156 178 98 205 202 102 122 99 90 102 122 108 182 148 168 274 255 101 27 23 8 33 7 7 1 29 36 1 30 5 38 41 5 108 428 64 105 126 129 59
16 35 44 29 95 123 213 225 236 306 311 121 295 307 223 414 384 492 414 416 203 44 31 31 17 16 9 4 1 0 16 171 99 21 4 20 1 9 31 38 49 64 140 41
5 118 128 159 227 222 171 256 410 32 93 243 175 156 396 506 587 532 309 204 130 9 3 38 22 19 6 3 13 7 5 312 191 196 351 246 259 5 19 5 9 88 15 62
46 125 215 135 151 305 245 332 56 63 57 160 220 321 308 222 150 3 15 9 7 7 1 2 12 11 4 4 9 11 5 20 90 21 5 18 8 15 17 11 3 1 0 1